| time (UTC) | temp C | wind direction | speed KPH | gust KPH | rain 1hr cm | rain 24hr cm | rain mn cm | humidity % | barometer mb |
| 20260510021559 | 11 | 175 | 6.4 | 0.0 | 0.00 | 0.00 | 0.36 | 90 | 1002.3 |
| 20260510020058 | 12 | 193 | 6.4 | 0.0 | 0.00 | 0.00 | 0.36 | 89 | 1002.4 |
| 20260510014558 | 12 | 196 | 6.4 | 0.0 | 0.00 | 0.00 | 0.36 | 87 | 1002.4 |
| 20260510013056 | 13 | 272 | 6.4 | 0.0 | 0.00 | 0.00 | 0.15 | 82 | 1002.4 |
| 20260510011558 | 14 | 211 | 6.4 | 0.0 | 0.00 | 0.00 | 0.00 | 75 | 1001.6 |
| 20260510010126 | 14 | 221 | 6.4 | 0.0 | 0.00 | 0.00 | 0.00 | 73 | 1001.4 |
| 20260510004554 | 14 | 199 | 4.8 | 0.0 | 0.00 | 0.00 | 0.00 | 72 | 1001.5 |
| 20260510003054 | 14 | 167 | 4.8 | 0.0 | 0.00 | 0.00 | 0.00 | 71 | 1001.4 |
| 20260510001552 | 15 | 180 | 4.8 | 0.0 | 0.00 | 0.00 | 0.00 | 71 | 1001.4 |
| 20260510000052 | 15 | 173 | 4.8 | 0.0 | 0.00 | 0.00 | 0.00 | 70 | 1001.6 |
| 20260509234609 | 15 | 123 | 6.4 | 0.0 | 0.00 | 0.00 | 0.00 | 70 | 1001.5 |
| 20260509233047 | 15 | 163 | 4.8 | 0.0 | 0.00 | 0.00 | 0.00 | 69 | 1002.1 |
| 20260509231546 | 15 | 167 | 4.8 | 0.0 | 0.00 | 0.00 | 0.00 | 68 | 1002.4 |
| 20260509230046 | 15 | 248 | 3.2 | 0.0 | 0.00 | 0.00 | 0.00 | 68 | 1002.6 |
| 20260509224545 | 15 | 165 | 4.8 | 0.0 | 0.00 | 0.00 | 0.00 | 66 | 1002.6 |
| 20260509223045 | 16 | 272 | 8.0 | 0.0 | 0.00 | 0.00 | 0.00 | 65 | 1002.8 |
| 20260509221543 | 16 | 215 | 6.4 | 0.0 | 0.00 | 0.00 | 0.00 | 63 | 1002.7 |
| 20260509220042 | 16 | 226 | 8.0 | 0.0 | 0.00 | 0.00 | 0.00 | 60 | 1002.6 |
| 20260509214543 | 16 | 199 | 8.0 | 0.0 | 0.00 | 0.00 | 0.00 | 58 | 1002.6 |
| 20260509213047 | 16 | 173 | 8.0 | 0.0 | 0.00 | 0.00 | 0.00 | 57 | 1002.5 |
| 20260509211546 | 17 | 296 | 8.0 | 0.0 | 0.00 | 0.00 | 0.00 | 53 | 1002.5 |
| 20260509210037 | 17 | 225 | 8.0 | 0.0 | 0.00 | 0.00 | 0.00 | 52 | 1002.8 |
| 20260509204537 | 17 | 165 | 6.4 | 0.0 | 0.00 | 0.00 | 0.00 | 50 | 1002.9 |
| 20260509203042 | 17 | 199 | 8.0 | 0.0 | 0.00 | 0.00 | 0.00 | 50 | 1003.0 |
| 20260509201534 | 17 | 177 | 11.3 | 0.0 | 0.00 | 0.00 | 0.00 | 49 | 1002.9 |
| 20260509200032 | 17 | 166 | 9.7 | 0.0 | 0.00 | 0.00 | 0.00 | 47 | 1003.3 |
| 20260509194531 | 18 | 255 | 9.7 | 0.0 | 0.00 | 0.00 | 0.00 | 45 | 1003.6 |
| 20260509193031 | 18 | 229 | 6.4 | 0.0 | 0.00 | 0.00 | 0.00 | 49 | 1003.7 |
| 20260509191533 | 18 | 141 | 8.0 | 0.0 | 0.00 | 0.00 | 0.00 | 49 | 1003.8 |
| 20260509190027 | 18 | 211 | 8.0 | 0.0 | 0.00 | 0.00 | 0.00 | 51 | 1003.9 |
| 20260509184531 | 18 | 128 | 8.0 | 0.0 | 0.00 | 0.00 | 0.00 | 53 | 1004.2 |
| 20260509183022 | 17 | 186 | 9.7 | 0.0 | 0.00 | 0.00 | 0.00 | 52 | 1004.2 |
| 20260509181520 | 17 | 189 | 8.0 | 0.0 | 0.00 | 0.00 | 0.00 | 50 | 1004.4 |
| 20260509180020 | 17 | 291 | 8.0 | 0.0 | 0.00 | 0.00 | 0.00 | 49 | 1004.7 |
| 20260509174518 | 17 | 194 | 9.7 | 0.0 | 0.00 | 0.00 | 0.00 | 45 | 1004.8 |
| 20260509173017 | 17 | 90 | 8.0 | 0.0 | 0.00 | 0.00 | 0.00 | 48 | 1004.9 |
| 20260509171514 | 18 | 286 | 6.4 | 0.0 | 0.00 | 0.00 | 0.00 | 46 | 1004.9 |
| 20260509170013 | 17 | 61 | 8.0 | 0.0 | 0.00 | 0.00 | 0.00 | 45 | 1005.1 |
| 20260509164510 | 17 | 132 | 6.4 | 0.0 | 0.00 | 0.00 | 0.00 | 45 | 1005.5 |
| 20260509163009 | 17 | 190 | 4.8 | 0.0 | 0.00 | 0.00 | 0.00 | 43 | 1005.8 |
| 20260509161505 | 17 | 223 | 8.0 | 0.0 | 0.00 | 0.00 | 0.00 | 45 | 1005.9 |
| 20260509160001 | 17 | 225 | 8.0 | 0.0 | 0.00 | 0.00 | 0.00 | 45 | 1006.1 |
| 20260509154559 | 17 | 210 | 6.4 | 0.0 | 0.00 | 0.00 | 0.00 | 48 | 1006.4 |
| 20260509153056 | 17 | 291 | 6.4 | 0.0 | 0.00 | 0.00 | 0.00 | 47 | 1006.6 |
| 20260509151552 | 16 | 277 | 3.2 | 0.0 | 0.00 | 0.00 | 0.00 | 48 | 1006.8 |
| 20260509150048 | 16 | 169 | 6.4 | 0.0 | 0.00 | 0.00 | 0.00 | 46 | 1007.2 |
| 20260509144545 | 16 | 179 | 6.4 | 0.0 | 0.00 | 0.00 | 0.00 | 47 | 1007.2 |
| 20260509143041 | 15 | 188 | 6.4 | 0.0 | 0.00 | 0.00 | 0.00 | 48 | 1007.3 |
| 20260509141538 | 15 | 280 | 4.8 | 0.0 | 0.00 | 0.00 | 0.00 | 48 | 1007.3 |
| 20260509140034 | 14 | 163 | 8.0 | 0.0 | 0.00 | 0.00 | 0.00 | 48 | 1007.3 |
| 20260509134530 | 13 | 136 | 4.8 | 0.0 | 0.00 | 0.00 | 0.00 | 52 | 1007.5 |
| 20260509133026 | 12 | 140 | 4.8 | 0.0 | 0.00 | 0.00 | 0.00 | 56 | 1007.6 |
| 20260509131520 | 11 | 178 | 4.8 | 0.0 | 0.00 | 0.00 | 0.00 | 58 | 1007.7 |
| 20260509130028 | 10 | 182 | 4.8 | 0.0 | 0.00 | 0.00 | 0.00 | 59 | 1007.7 |
| 20260509124513 | 10 | 174 | 4.8 | 0.0 | 0.00 | 0.00 | 0.00 | 63 | 1007.8 |
| 20260509123009 | 8 | 190 | 1.6 | 0.0 | 0.00 | 0.00 | 0.00 | 68 | 1008.0 |
| 20260509121506 | 7 | 195 | 1.6 | 0.0 | 0.00 | 0.00 | 0.00 | 74 | 1008.2 |
| 20260509120001 | 6 | 153 | 0.0 | 0.0 | 0.00 | 0.00 | 0.00 | 76 | 1008.2 |
| 20260509114558 | 6 | 207 | 0.0 | 0.0 | 0.00 | 0.00 | 0.00 | 80 | 1008.3 |
| 20260509113059 | 5 | 207 | 0.0 | 0.0 | 0.00 | 0.00 | 0.00 | 83 | 1008.3 |
| 20260509111551 | 5 | 207 | 0.0 | 0.0 | 0.00 | 0.00 | 0.00 | 86 | 1008.2 |
| 20260509110050 | 3 | 207 | 0.0 | 0.0 | 0.00 | 0.00 | 0.00 | 88 | 1008.0 |
| 20260509104547 | 3 | 207 | 0.0 | 0.0 | 0.00 | 0.00 | 0.00 | 87 | 1008.0 |
| 20260509103045 | 3 | 206 | 0.0 | 0.0 | 0.00 | 0.00 | 0.00 | 85 | 1007.8 |
| 20260509101542 | 3 | 206 | 0.0 | 0.0 | 0.00 | 0.00 | 0.00 | 85 | 1007.8 |
| 20260509100039 | 3 | 206 | 0.0 | 0.0 | 0.00 | 0.00 | 0.00 | 84 | 1007.8 |
| 20260509094538 | 3 | 206 | 0.0 | 0.0 | 0.00 | 0.00 | 0.00 | 83 | 1008.0 |
| 20260509093036 | 3 | 206 | 0.0 | 0.0 | 0.00 | 0.00 | 0.00 | 83 | 1007.9 |
| 20260509091534 | 3 | 206 | 0.0 | 0.0 | 0.00 | 0.00 | 0.00 | 83 | 1007.9 |
| 20260509090033 | 3 | 207 | 0.0 | 0.0 | 0.00 | 0.00 | 0.00 | 82 | 1007.9 |
| 20260509084536 | 3 | 207 | 0.0 | 0.0 | 0.00 | 0.00 | 0.00 | 80 | 1008.0 |
| 20260509083037 | 3 | 207 | 0.0 | 0.0 | 0.00 | 0.00 | 0.00 | 79 | 1008.0 |
| 20260509081535 | 3 | 203 | 0.0 | 0.0 | 0.00 | 0.00 | 0.00 | 80 | 1008.1 |
| 20260509080036 | 3 | 198 | 1.6 | 0.0 | 0.00 | 0.00 | 0.00 | 79 | 1008.1 |
| 20260509074528 | 3 | 197 | 1.6 | 0.0 | 0.00 | 0.00 | 0.00 | 80 | 1008.2 |
| 20260509073025 | 3 | 217 | 1.6 | 0.0 | 0.00 | 0.00 | 0.00 | 82 | 1008.4 |
| 20260509071524 | 3 | 219 | 1.6 | 0.0 | 0.00 | 0.00 | 0.00 | 81 | 1008.4 |
| 20260509070022 | 3 | 205 | 1.6 | 0.0 | 0.00 | 0.00 | 0.00 | 79 | 1008.4 |
| 20260509064523 | 3 | 225 | 0.0 | 0.0 | 0.00 | 0.00 | 0.00 | 78 | 1008.4 |
| 20260509063017 | 3 | 225 | 0.0 | 0.0 | 0.00 | 0.00 | 0.00 | 78 | 1008.6 |
| 20260509061515 | 4 | 225 | 1.6 | 0.0 | 0.00 | 0.00 | 0.00 | 79 | 1008.8 |
| 20260509060016 | 3 | 217 | 1.6 | 0.0 | 0.00 | 0.00 | 0.00 | 80 | 1008.9 |
| 20260509054513 | 4 | 267 | 1.6 | 0.0 | 0.00 | 0.00 | 0.00 | 80 | 1009.0 |
| 20260509053013 | 4 | 236 | 1.6 | 0.0 | 0.00 | 0.00 | 0.00 | 79 | 1009.0 |
| 20260509051511 | 4 | 210 | 3.2 | 0.0 | 0.00 | 0.00 | 0.00 | 79 | 1009.1 |
| 20260509050010 | 4 | 202 | 3.2 | 0.0 | 0.00 | 0.00 | 0.00 | 79 | 1009.2 |
| 20260509044509 | 4 | 202 | 3.2 | 0.0 | 0.00 | 0.00 | 0.00 | 79 | 1009.3 |
| 20260509043008 | 4 | 229 | 1.6 | 0.0 | 0.00 | 0.00 | 0.00 | 77 | 1009.3 |
| 20260509041508 | 4 | 225 | 3.2 | 0.0 | 0.00 | 0.00 | 0.00 | 76 | 1009.3 |
| 20260509040004 | 4 | 237 | 1.6 | 0.0 | 0.00 | 0.00 | 0.00 | 75 | 1009.3 |
| 20260509034503 | 5 | 205 | 0.0 | 0.0 | 0.00 | 0.00 | 0.00 | 74 | 1009.2 |
| 20260509033003 | 5 | 205 | 3.2 | 0.0 | 0.00 | 0.00 | 0.00 | 74 | 1009.2 |
| 20260509031501 | 5 | 211 | 3.2 | 0.0 | 0.00 | 0.00 | 0.00 | 73 | 1009.3 |
| 20260509030003 | 5 | 223 | 3.2 | 0.0 | 0.00 | 0.00 | 0.00 | 72 | 1009.4 |
| 20260509024602 | 5 | 236 | 1.6 | 0.0 | 0.00 | 0.00 | 0.00 | 71 | 1009.4 |
| 20260509023105 | 6 | 233 | 1.6 | 0.0 | 0.00 | 0.00 | 0.00 | 70 | 1009.6 |